User: anonymous   Login
Location: Ravensburg
(47.7866°N, 9.6124°E)
Time: 19:54:56
(UTC+01:00)
Language:

CUTE-I - Orbit

View from above orbital plane
View from above orbital plane
View from above satellite
View from above satellite

Ground track
Ground track

The orbit is defined by the following mean orbital elements,

1 27844U          26066.59677279 +.00000000 +00000-0 +23007-3 0 00005
2 27844  98.6780  76.4215 0010613 117.8292 242.3964 14.24264289    03
Epoch (UTC): 07 March 2026 14:19:21
Eccentricity: 0.0010613
inclination: 98.6780°
perigee height: 803 km
apogee height: 819 km
right ascension of ascending node: 76.4215°
argument of perigee: 117.8292°
revolutions per day: 14.24264289
mean anomaly at epoch: 242.3964°

The dashed part of the orbit path shows where the satellite is in the earth's shadow,  

DLR